Lid_Strength_Index
-0 0 0 3 10 9 11 10 7 8 7 5 4 6 7 6 8 11 1 0 0 0 -1 -1 -1 -1 -2 -2 -2 -2 -2 -2 -2 -2 -1 -1 -1 -1 -2 -1 -1 -2 -1 -1 -1 -1 -1 -1 -1
0 0 2 6 12 12 11 7 8 7 5 4 5 5 6 7 4 4 3 0 -0 -0 -1 -1 -1 -2 -1 -2 -2 -2 -2 -1 -1 -1 -2 -2 -1 -1 -1 -1 -1 -1 -1 -1 -1 -1 -1 -1 -1
0 1 6 10 9 11 11 7 7 5 5 5 6 4 5 6 3 3 1 0 -0 -0 -1 -1 -1 -2 -1 -1 -2 -2 -1 -1 -1 -1 -1 -1 -1 -1 -1 -1 -1 -1 -1 -1 -1 -1 -1 -1 -1
2 3 5 8 10 8 8 6 5 6 5 4 5 6 4 2 3 1 0 -0 0 -0 -0 -1 -1 -1 -1 -1 -2 -1 -1 -1 -1 -1 -1 -1 -2 -1 -1 -1 -1 -1 -1 -1 -1 -1 -1 -1 -1
2 4 8 9 9 7 6 5 5 6 5 5 5 7 5 2 1 1 0 -0 0 0 -0 -1 -2 -2 -2 -2 -1 -1 -1 -1 -1 -1 -1 -1 -1 -1 -1 -1 -1 -1 -1 -1 -1 -1 -1 -1 -1
6 6 9 10 9 7 6 5 5 5 5 5 6 6 5 2 1 1 0 0 0 0 -0 -1 -1 -2 -2 -1 -1 -1 -1 -1 -1 -1 -1 -1 -1 -1 -1 -1 -1 -1 -1 -1 -1 -1 -1 -1 -1
7 8 8 8 8 7 6 4 5 5 6 6 4 7 4 3 1 0 0 0 -0 -0 -0 -1 -1 -1 -1 -2 -1 -1 -1 -1 -1 -1 -1 -1 -1 -1 -1 -1 -1 -1 -1 -1 -1 -1 -1 -1 -1
5 6 8 7 9 8 5 5 4 5 5 3 3 7 6 3 1 1 0 0 0 -0 -0 -1 -1 -1 -1 -1 -1 -1 -1 -1 -1 -1 -1 -1 -1 -1 -1 -2 -2 -1 -1 -1 -1 -1 -1 -1 -1
4 9 10 9 8 7 5 6 4 3 4 4 3 4 3 2 1 1 1 1 1 0 0 -0 -0 -1 -1 -1 -1 -1 -2 -1 -1 -1 -1 -1 -1 -1 -1 -2 -2 -1 -1 -1 -1 -1 -1 -2 -2
6 8 8 6 5 6 5 5 5 5 5 5 4 3 2 2 2 2 2 2 2 1 1 -0 -0 -0 -1 -0 -1 -1 -1 -1 -1 -2 -2 -2 -2 -2 -1 -2 -2 -2 -2 -2 -2 -2 -2 -1 -1
5 7 5 5 5 4 5 5 4 6 6 5 5 4 3 2 2 2 2 2 2 1 1 0 0 -1 -0 -0 -1 -1 -1 -1 -1 -2 -2 -1 -2 -1 -1 -1 -1 -1 -1 -1 -1 -1 -1 -1 -1
6 4 5 5 4 5 5 4 5 5 5 3 3 3 3 3 3 3 2 2 2 1 1 0 -0 -0 -1 -1 -1 -0 -0 -1 -0 -1 -2 -2 -1 -1 -1 -0 -1 -1 -1 -1 -1 -1 -1 -1 -1
6 5 4 4 4 4 4 5 5 5 4 3 3 3 3 3 3 2 2 1 1 1 1 0 -0 -1 -1 -1 -1 -1 -0 -0 -1 -1 -1 -1 -1 0 -0 -2 -1 -1 -1 -1 -0 -1 -1 -0 -1
4 5 5 5 5 5 6 6 6 5 3 3 3 3 3 3 3 2 2 2 1 1 1 0 0 -1 -1 -1 -1 -0 -1 -0 -1 -1 -2 -3 -2 -0 -1 -1 -1 -1 -1 -2 -1 -1 -0 -0 -0
5 8 8 6 7 8 5 8 8 5 4 4 4 3 3 3 2 2 2 2 1 1 1 0 0 -0 -0 -1 -1 -1 -1 -1 -0 -1 -1 -2 -2 -1 -2 -1 -0 -1 -1 -2 -1 -1 -0 0 -0
7 8 13 8 6 8 6 12 7 4 4 5 4 4 3 3 2 2 1 1 1 1 1 0 -0 -0 -0 -0 -0 -0 -1 -1 -1 -1 -1 -2 -2 -3 -2 -0 0 -2 -2 -1 -0 0 -0 1 1
8 12 11 9 6 6 7 11 7 5 5 5 4 4 4 3 2 2 1 1 1 1 1 0 -0 0 0 -0 -0 -1 -2 -2 -1 -2 -1 -2 -2 -2 -1 -0 -1 -2 -0 -1 -0 0 0 1 1
12 12 10 9 6 5 9 11 8 5 5 5 5 4 4 4 3 2 1 1 1 1 0 0 0 -0 0 -0 -1 -0 -0 -1 -1 -0 -0 -1 -2 -2 -2 -1 -2 -2 0 0 0 0 0 0 1
6 11 12 8 6 6 6 7 6 5 5 5 5 5 4 4 3 2 2 1 1 1 1 0 1 -0 0 1 1 1 1 0 -0 -0 -0 -2 -2 -2 -2 -1 -0 -1 0 0 -0 0 1 1 0
6 7 8 8 7 6 6 6 6 6 5 5 5 5 4 4 3 3 2 2 1 1 1 1 1 0 0 0 0 0 0 1 -0 -0 -1 -2 -1 -2 -1 -1 0 -1 0 0 -0 0 1 1 0
7 7 8 11 9 8 8 7 8 8 6 4 4 4 4 4 4 3 3 2 2 2 1 1 1 1 0 -0 0 0 -0 -0 0 -0 -0 -0 -2 -2 -2 -1 -1 -1 -0 0 0 0 1 2 1
8 6 6 8 10 11 6 10 8 7 7 5 5 4 4 4 3 3 3 2 2 2 1 1 1 1 0 -0 0 1 2 1 1 1 0 -0 -1 -1 -1 -2 -1 -1 -0 0 -0 0 1 1 2
7 5 6 6 8 8 8 12 8 6 7 7 5 4 4 4 3 3 3 2 2 1 1 1 1 1 0 0 0 1 1 1 1 1 1 0 -0 -1 -1 -1 -1 -1 -1 -0 -0 0 0 0 1
5 6 6 6 8 11 8 10 10 8 6 6 4 4 4 3 3 3 2 2 2 1 1 1 1 1 1 1 0 1 1 1 1 1 1 0 1 0 -0 -0 -1 -1 -0 -0 -0 -0 -0 0 0
6 7 10 11 11 12 8 9 8 6 5 5 5 4 3 3 3 3 3 3 2 2 2 1 1 2 1 1 1 1 1 1 1 1 1 1 1 1 0 -0 -0 -0 -1 -1 -0 -0 -0 0 1
7 7 10 13 12 11 8 12 11 5 4 4 4 4 3 3 3 3 3 2 2 2 1 1 2 2 1 1 1 1 0 1 1 0 1 1 1 1 -0 -0 -0 -0 -1 -1 -1 -0 0 -0 0
7 8 6 9 9 10 10 8 6 5 5 5 4 4 4 3 3 3 3 2 2 2 2 1 2 2 1 1 1 1 1 1 1 -0 0 1 0 0 -0 -0 -0 -0 -0 -0 -0 0 0 -0 -0
6 5 9 8 12 12 11 10 10 7 6 5 6 5 4 4 3 3 3 2 2 2 1 1 1 2 1 1 1 1 1 1 0 0 1 0 0 -0 0 0 -0 -0 -0 -0 -0 0 -0 0 0
7 8 7 7 9 11 12 11 6 6 5 5 5 4 4 4 3 3 2 2 2 1 1 1 1 2 1 1 1 1 1 1 0 1 1 0 -0 0 0 0 0 0 0 -0 -0 0 0 0 0
6 7 7 9 10 9 10 10 5 5 5 4 4 4 3 3 3 2 2 2 2 2 2 2 1 1 1 1 1 1 1 1 1 1 0 0 0 -0 0 0 0 0 0 -0 0 0 0 0 1